Regional Weather Roundup
Issued by NWS

Home | Current Version | Previous Version | Text Only | Print | Product List | Glossary Off
Versions: 1 2 3 4 5 6 7 8 9 10 11 12 13 14 15 16 17 18 19 20 21 22 23 24 25 26 27 28 29 30 31 32 33 34 35 36 37 38 39 40 41 42 43 44 45 46 47 48 49 50

000
ASUS44 KMEG 040410
RWRTN
TENNESSEE HOURLY STATE WEATHER ROUNDUP
NATIONAL WEATHER SERVICE MEMPHIS TN
1100 PM CDT FRI JUL 03 2015

TNZ002-004-019-021-049-052-054-088>092-040500-
WEST TENNESSEE

CITY           SKY/WX    TMP DP  RH WIND       PRES   REMARKS
MEMPHIS INTL   MOCLDY    73  70  90 SW7       29.95R
NWS MEMPHIS      N/A     73 N/A N/A MISG        N/A
JACKSON        MOCLDY    73  71  93 SW6       29.93R
DYERSBURG        N/A    N/A N/A N/A MISG        N/A
PARIS          MOCLDY    68  66  94 S5        29.93R
LEXINGTON      CLOUDY    72  70  94 CALM      29.93R
$$

TNZ008-025-027-028-033-062-065-066-040500-
NORTH MIDDLE TENNESSEE

CITY           SKY/WX    TMP DP  RH WIND       PRES   REMARKS
NASHVILLE      CLOUDY    73  70  90 SW5       29.95S
CLARKSVILLE    MOCLDY    70  68  93 S6        29.92R
SMYRNA         CLOUDY    73  69  87 SW6       29.97R
COOKEVILLE     CLOUDY    72  70  94 SW5       29.98R
CROSSVILLE     CLOUDY    69  63  81 VRB6      30.03R
$$

TNZ061-075-076-078-094-096-097-040500-
SOUTH MIDDLE TENNESSEE

CITY           SKY/WX    TMP DP  RH WIND       PRES   REMARKS
FAYETTEVILLE   MOCLDY    68  66  94 CALM      29.99R
TULLAHOMA      CLOUDY    68  66  94 SW5       30.00R
WINCHESTER     MOCLDY    70  68  94 CALM      29.99S
MCMINNVILLE    CLOUDY    72  72 100 S3        29.99R
COLUMBIA       CLOUDY    72  72 100 S6        29.94S
SHELBYVILLE    MOCLDY    72  70  94 CALM        N/A
$$

TNZ017-018-042-046-047-040500-
NORTHEAST TENNESSEE

CITY           SKY/WX    TMP DP  RH WIND       PRES   REMARKS
TRI CITIES     CLOUDY    70  67  90 SW6       29.97R
ELIZABETHTON   CLOUDY    70  64  83 VRB5      29.98S
$$

TNZ012-013-036-069-073-074-040500-
CENTRAL EAST TENNESSEE

CITY           SKY/WX    TMP DP  RH WIND       PRES   REMARKS
KNOXVILLE      CLOUDY    72  65  78 SW13      29.97R
OAK RIDGE      LGT RAIN  72  66  81 VRB5      29.99R
GATLINBURG     MOCLDY    72  63  73 SW9       29.98R
MORRISTOWN     PTCLDY    72  66  83 SW10      29.98S
$$

TNZ083-085-099-040500-
SOUTHEAST TENNESSEE

CITY           SKY/WX    TMP DP  RH WIND       PRES   REMARKS
CHATTANOOGA    RAIN      71  67  87 S7        30.01R
$$

SKY/WX REPORTED AS FAIR MEANS FEW OR NO CLOUDS BELOW
12 THOUSAND FEET.



USA.gov is the U.S. government's official web portal to all federal, state and local government web resources and services.